Weather in Yabogan

Russia / Altai Republic     50°54′30″N   85°04′17″E
temp.,
°C
wind,
m/s
gust,
m/s
humid.,
%
clouds,
%
prec.,
mm/h
press.,
hPa
HPBL,
m
11 april, sun
sun1101:00−6ne229692 0.0 1036167
04:00−6ne129299 0.1 1036252
07:00−7e118965 0.1 1038192
10:00−4ese11764 0.0 1037275
13:00+1ene12723 0.0 1034403
16:00+3ne127725 0.0 1033321
19:00+1nne228537 0.0 1035106
22:00−4ene11916 0.0 103812
12 april, mon
mon1201:00−5e119113 0.0 103921
04:00−6ese218815 0.0 103826
07:00−5ese218466 0.0 103829
10:00+2se11726 0.0 1034167
13:00+5ese116355 0.0 1032300
16:00+6e115844 0.1 1030361
19:00+4e117284 0.1 103139
22:000e117126 0.0 103310
13 april, tue
tue1301:00−1se11725 0.0 103210
04:00−1se1173100 0.0 103110
07:00−1se117551 0.0 103110
10:00+4nw116799 0.0 1029202
13:00+6nnw3470100 0.0 1028631
16:00+5n457166 0.0 1029627
19:00+2n34736 0.0 1032412
22:00−2n229128 0.0 103573
14 april, wed
wed1401:00−2n228773 0.0 1036265
04:00−4ne008812 0.0 103637
07:00−4ne118515 0.0 103757
10:00+1nnw11555 0.0 1035357
13:00+4n12461 0.0 1032602
16:00+6nne225011 0.0 1030711
19:00+5nne11555 0.0 1029266
22:00+1ene11675 0.0 103010
15 april, thu
thu1501:000ese116947 0.0 102810
04:000se0170100 0.0 102710
07:000ese0070100 0.0 102610
10:00+4ne006051 0.0 1024247
13:00+8n10445 0.0 1021711
16:00+9n22373 0.0 10191050
19:00+8n11450 0.0 1019403
22:00+4ne11630 0.0 102010